Hourly Data Report for October 05, 2017

All times are specified in Local Standard Time (LST). Add 1 hour to adjust for Daylight Saving Time where and when it is observed.

TRACADIE
NOVA SCOTIA

45°36'30.080" N
61°40'47.020" W
66.70 m
8205895
71308
XTD

Download Data

Hourly Data (October 2017)
Hourly Data Report for October 5, 2017
Temp Definition
°C
Dew Point Temp Definition
°C
Rel Hum Definition
%
Wind Dir Definition
10's deg

Wind Spd Definition
km/h
Visibility Definition
km
Stn Press Definition
kPa
Hmdx Definition


Wind Chill Definition


Weather Definition


TIME
00:00 15.5 11.1 75 21 33   100.43     LegendNANA
01:00 14.5 11.2 80 21 31   100.41     LegendNANA
02:00 13.7 11.2 84 20 30   100.33     LegendNANA
03:00 13.6 11.0 84 21 19   100.34     LegendNANA
04:00 14.4 11.8 84 25 14   100.40     LegendNANA
05:00 14.4 12.6 89 20 28   100.24     LegendNANA
06:00 15.2 13.1 87 21 33   100.18     LegendNANA
07:00 16.0 13.8 87 21 30   100.22     LegendNANA
08:00 17.1 14.7 86 22 25   100.29     LegendNANA
09:00 18.8 15.6 82 22 24   100.30     LegendNANA
10:00 20.9 17.1 79 25 12   100.34 26   LegendNANA
11:00 20.8 16.7 78 28 23   100.39 26   LegendNANA
12:00 20.9 17.2 80 28 19   100.39 26   LegendNANA
13:00 21.2 16.7 76 30 16   100.38 26   LegendNANA
14:00 16.6 12.1 75 35 18   100.43     LegendNANA
15:00 16.7 12.1 75 1 15   100.39     LegendNANA
16:00 15.6 10.7 73 36 13   100.43     LegendNANA
17:00 14.5 10.4 76 3 6   100.44     LegendNANA
18:00 11.9 10.1 89   0   100.46     LegendNANA
19:00 10.2 9.0 92 9 4   100.51     LegendNANA
20:00 9.7 8.5 92 15 5   100.55     LegendNANA
21:00 9.0 7.7 91 17 7   100.57     LegendNANA
22:00 8.5 7.1 91 19 8   100.58     LegendNANA
23:00 11.5 9.5 88 22 7   100.61     LegendNANA

Notes on Data Quality.

Legend

  • E = Estimated
  • M = Missing
  • NA = Not Available
  • ‡ = Partner data that is not subject to review by the National Climate Archives
Date modified: